This is the latest recevied weather packets stored in our database for station/object KC2GYU. If no packets are shown the sender has not sent any weather packets the latest 10 day(s).
| Time | Temp. | Humidity | Pressure | Rain* | Wind** | Luminosity | Snow |
|---|---|---|---|---|---|---|---|
| 1778028794 | 16.11° C | 87% | 1012.8 hPa | 0 mm | - | 0 W/m² | - |
| 1778028490 | 16.11° C | 88% | 1012.5 hPa | 0 mm | - | 0 W/m² | - |
| 1778028188 | 16.11° C | 88% | 1012.6 hPa | 0 mm | - | 0 W/m² | - |
| 1778027884 | 16.11° C | 89% | 1012.5 hPa | 0 mm | - | 0 W/m² | - |
| 1778027581 | 16.11° C | 89% | 1012.5 hPa | 0 mm | - | 0 W/m² | - |
| 1778027277 | 16.11° C | 89% | 1012.5 hPa | 0 mm | - | 0 W/m² | - |
| 1778026973 | 16.11° C | 89% | 1012.8 hPa | 0 mm | - | 0 W/m² | - |
| 1778026669 | 16.11° C | 89% | 1012.9 hPa | 0 mm | - | 0 W/m² | - |
| 1778026367 | 16.11° C | 88% | 1012.5 hPa | 0 mm | - | 0 W/m² | - |
| 1778026063 | 16.11° C | 88% | 1012.6 hPa | 0 mm | - | 0 W/m² | - |
| 1778025761 | 16.11° C | 88% | 1012.5 hPa | 0 mm | - | 0 W/m² | - |
| 1778025458 | 16.11° C | 87% | 1012.3 hPa | 0 mm | - | 0 W/m² | - |
| 1778025155 | 16.67° C | 87% | 1012.6 hPa | 0 mm | - | 1 W/m² | - |
| 1778024852 | 16.67° C | 86% | 1012.6 hPa | 0 mm | - | 3 W/m² | - |
| 1778024550 | 16.67° C | 86% | 1012.6 hPa | 0 mm | - | 5 W/m² | - |
| 1778024246 | 16.67° C | 85% | 1012.2 hPa | 0 mm | - | 6 W/m² | - |
| 1778023944 | 16.67° C | 84% | 1012.3 hPa | 0 mm | - | 8 W/m² | - |
| 1778023641 | 17.22° C | 84% | 1012.4 hPa | 0 mm | - | 11 W/m² | - |
| 1778023338 | 17.22° C | 83% | 1012.4 hPa | 0 mm | - | 13 W/m² | - |
| 1778023035 | 17.22° C | 82% | 1012.4 hPa | 0 mm | - | 16 W/m² | - |
| 1778022734 | 17.78° C | 82% | 1012.2 hPa | 0 mm | - | 20 W/m² | - |
| 1778022432 | 17.78° C | 81% | 1012.3 hPa | 0 mm | - | 26 W/m² | - |
| 1778022128 | 17.78° C | 80% | 1012.2 hPa | 0 mm | - | 30 W/m² | - |
| 1778021824 | 18.33° C | 80% | 1012.4 hPa | 0 mm | - | 39 W/m² | - |
| 1778021521 | 18.33° C | 79% | 1012.1 hPa | 0 mm | - | 46 W/m² | - |
* Rain latest hour (hover to see other rain measurements)
** Current wind speed in m/s (hover to see current wind gust speed)